Zurück zum Katalog

CZ-4C DEB

AktivLEO
NORAD 39016·DEBRIS·🇨🇳 China

Gestartet Nov 25, 2012 von Jiuquan Satellite Launch Center

Loading…

Nächste Überflüge (nächste 24 Stunden)

TLE

AktuellSource: Space-Track

Epoche: Sep 14, 2026, 04:37 UTC

1 39016U 12066F   26257.19293530 -.00000027  00000-0  58076-4 0  9998
2 39016  63.3519  73.7601 0451039  29.0192 333.5117 13.45343750677768

Verfolge CZ-4C DEB in Echtzeit mit AllMySat

Download on the App Store